Regional Weather Roundup
Issued by NWS

Home | Current Version | Previous Version | Graphics & Text | Print | Product List | Glossary On
Versions: 1 2 3 4 5 6 7 8 9 10 11 12 13 14 15 16 17 18 19 20 21 22 23 24 25 26 27 28 29 30 31 32 33 34 35 36 37 38 39 40 41 42 43 44 45 46 47 48 49 50
000
ASUS43 KLSX 301659
RWRMO

WEATHER SUMMARY FOR MISSOURI
NATIONAL WEATHER SERVICE SPRINGFIELD MO
1200 PM CDT SAT MAY 30 2015

NOTE: "FAIR" INDICATES FEW OR NO CLOUDS BELOW 12,000 FEET WITH NO
       SIGNIFICANT WEATHER AND/OR OBSTRUCTIONS TO VISIBILITY.
       CURRENT SKY AND/OR WEATHER CONDITIONS ARE NOT AVAILABLE FOR
       CHILLICOTHE AND FARMINGTON.

MOZ001>031-035>038-043-044-053-054-301800-
...NORTHERN AND WESTERN MISSOURI...

CITY           SKY/WX    TMP DP  RH WIND       PRES   REMARKS
KANSAS CTY INT CLOUDY    58  54  86 N13       30.11R
KANSAS C DTWN  CLOUDY    60  54  80 NW10      30.10S
LEE`S SUMMIT   CLOUDY    59  54  83 NW9       30.11R
ST JOSEPH      CLOUDY    58  54  86 N14       30.13R
CHILLICOTHE      N/A     63  57  81 VRB7      30.09R
KIRKSVILLE     CLOUDY    64  60  87 NW12      30.05S

$$
MOZ066>068-077>081-088>096-101>105-301800-
...SOUTHWEST MISSOURI...

CITY           SKY/WX    TMP DP  RH WIND       PRES   REMARKS
SPRINGFIELD    CLOUDY    71  64  78 NW12      30.05R
JOPLIN         CLOUDY    64  61  90 NW12      30.09R

$$
MOZ032>034-039>042-045>050-055>058-069>072-301800-
...CENTRAL MISSOURI...

CITY           SKY/WX    TMP DP  RH WIND       PRES   REMARKS
COLUMBIA       PTSUNNY   74  66  76 NW13      30.00S
JEFFERSON CITY PTSUNNY   71  66  84 NW9       29.99S
ROLLA          CLOUDY    68  65  90 N6        29.98S
SEDALIA        CLOUDY    65  60  84 NW14      30.06R
WHITEMAN AFB   CLOUDY    63  59  88 NW13      30.05R
OSAGE BEACH    CLOUDY    72  66  83 N8        30.00F

$$
MOZ051-052-059>065-301800-
...EAST CENTRAL MISSOURI...

CITY           SKY/WX    TMP DP  RH WIND       PRES   REMARKS
ST LOUIS INTL  CLOUDY    73  67  81 W8        29.96S
SPIRIT OF STL  LGT RAIN  69  68  96 NW7       29.96S FOG
ST CHARLES     LGT RAIN  69  67  93 N10       29.96S

$$
MOZ072>076-082>087-097>100-106>115-301800-
...SOUTH CENTRAL AND SOUTHEAST MISSOURI...

CITY           SKY/WX    TMP DP  RH WIND       PRES   REMARKS
CAPE GIRARDEAU SUNNY     77  71  82 S12G18    29.93F
FARMINGTON     PTSUNNY   68  64  88 W6        29.98S
POPLAR BLUFF   PTSUNNY   76  69  79 S8        29.90F
WEST PLAINS    CLOUDY    67  64  90 W5        30.01S

$$



USA.gov is the U.S. government's official web portal to all federal, state and local government web resources and services.